Lid_Strength_Index
-2 -2 -2 -2 -2 -2 -2 -2 -2 -2 -1 -0 2 2 3 3 2 2 4 2 5 8 9 8 10 12 13 13 15 15 15 16 16 17 17 17 18 22 23 23 24 24 26 28 29 32 25 17 17 19 16 15 14 14
-2 -2 -2 -2 -2 -2 -2 -2 -2 -2 -2 -1 -1 2 3 3 2 2 5 2 3 7 10 9 9 9 8 9 14 13 12 16 14 16 16 16 20 25 24 24 20 23 20 23 22 21 17 16 17 15 14 15 15 15
-2 -2 -2 -2 -2 -2 -2 -2 -2 -1 -1 -1 -1 0 2 2 3 2 4 3 4 9 10 9 10 10 8 9 8 12 12 11 12 13 14 14 18 20 25 24 21 21 19 20 20 17 17 16 15 16 15 15 14 15
-2 -2 -2 -2 -1 -1 -1 -1 -1 -1 -1 -1 0 0 1 1 1 1 4 3 4 8 10 11 9 10 9 8 9 9 11 12 11 12 14 17 19 17 21 20 21 20 19 22 21 18 17 16 17 16 15 15 15 14
-2 -2 -2 -1 -1 -1 -1 -1 -1 -1 -0 0 1 0 2 -0 -0 1 3 3 2 6 10 13 11 11 9 9 9 9 9 11 12 14 15 17 18 18 20 22 23 20 20 20 19 17 16 16 17 16 16 16 16 15
-1 -1 -1 -1 -1 -1 -1 -1 -1 -1 1 0 1 1 1 0 0 4 8 4 3 5 11 14 11 12 10 9 10 10 10 11 11 13 14 14 16 17 20 24 20 18 18 17 14 16 16 17 17 17 17 17 17 16
-0 -0 -1 -1 -1 -0 -0 -1 -1 0 1 1 1 1 1 1 2 6 7 5 2 5 12 15 16 12 11 11 12 13 12 13 12 13 14 15 16 16 19 20 15 16 16 16 16 18 17 18 17 17 16 17 18 20
-1 0 -1 -1 -1 -1 -1 -1 -0 1 1 1 1 0 0 1 2 5 5 3 4 7 9 15 19 14 12 14 15 12 14 13 13 14 16 16 17 18 21 22 14 12 12 16 16 17 15 20 21 20 21 21 21 21
-1 0 -0 -1 -1 -1 -1 -0 0 0 1 0 0 -0 2 4 6 7 2 2 4 7 11 15 18 17 12 14 13 13 12 14 15 15 16 15 23 21 19 19 17 14 16 14 20 18 24 20 20 22 23 25 21 22
-1 -0 -0 -1 -1 -1 -0 -0 -0 0 1 -0 3 8 9 5 1 2 4 7 8 8 9 13 19 18 13 14 14 14 13 15 18 17 18 22 21 20 19 16 14 12 14 20 21 22 27 24 22 21 21 20 18 19
-0 -0 -0 -1 -1 -1 -1 -1 -0 0 -1 3 6 8 7 1 5 6 9 9 9 12 10 13 15 16 13 15 15 14 15 15 18 21 20 25 24 20 15 13 12 12 16 17 14 16 17 18 18 20 21 21 21 22
-0 -1 -0 -1 -1 -1 -1 -1 -1 2 6 3 4 3 4 10 13 10 13 9 11 13 14 15 14 16 18 16 17 18 17 18 20 23 24 25 20 17 18 16 16 16 16 15 16 16 19 19 20 20 20 21 20 19
-1 -0 -0 -1 -1 -1 -1 -1 -1 -1 -0 1 6 8 8 10 13 13 17 14 15 13 15 17 16 15 15 18 21 21 22 19 22 25 23 21 18 16 21 20 17 23 25 22 17 16 16 18 22 21 20 22 21 20
-1 -1 -1 -1 -1 -1 -1 -1 -1 -0 2 6 9 14 11 14 13 12 11 13 15 14 16 10 15 15 18 20 21 21 25 24 28 29 22 21 18 20 21 23 22 21 25 26 23 21 18 20 19 19 19 20 20 21
-0 -1 -1 -1 -1 -1 -1 -1 -1 1 4 8 8 14 16 13 13 11 12 15 18 11 11 17 19 18 24 20 23 24 24 27 22 19 21 19 21 23 23 23 22 23 25 27 28 26 23 22 21 18 18 20 19 21
-1 -1 1 -1 -1 -1 -1 -0 1 2 4 9 12 12 13 13 13 12 13 17 10 10 12 15 20 19 18 21 22 20 21 21 18 22 20 22 22 24 24 25 23 25 26 27 28 28 27 27 23 22 22 22 21 21
-0 7 -1 -1 -0 -0 0 3 4 7 8 12 11 15 13 14 14 12 12 10 9 9 11 14 16 16 20 24 25 23 19 19 19 20 23 22 22 23 25 26 25 25 25 27 30 30 30 30 27 28 24 28 27 26
7 4 2 3 3 3 4 5 7 8 12 12 17 15 13 13 16 10 10 10 10 13 14 15 19 24 20 18 20 20 20 22 24 22 22 24 25 26 27 27 27 27 26 27 30 28 30 29 28 25 25 28 27 28
7 5 3 3 3 5 7 8 9 13 12 14 16 15 14 14 11 11 14 18 18 18 15 20 20 20 19 20 20 20 23 21 19 21 23 25 26 23 24 24 24 26 26 28 27 28 28 29 25 25 26 26 27 30
3 3 2 3 3 7 9 11 10 13 14 13 16 14 14 13 11 11 12 15 16 20 19 21 24 25 23 23 23 24 24 24 22 21 21 22 22 21 23 23 24 26 24 25 26 25 26 25 27 27 27 28 25 26
4 5 3 5 8 9 11 13 13 13 13 14 14 15 13 12 12 12 13 15 16 22 23 27 26 26 27 21 21 24 23 22 23 21 18 17 20 21 23 24 25 24 25 26 28 25 26 29 30 29 25 25 26 26
6 4 7 7 11 11 13 13 14 14 15 14 15 13 13 13 14 14 16 18 21 23 25 25 26 29 23 26 28 25 25 21 21 20 20 21 23 24 24 25 28 26 26 27 26 27 28 28 28 26 24 26 24 24
6 7 11 11 13 13 15 13 15 16 16 15 14 15 16 14 14 14 17 20 22 25 25 26 26 28 26 25 23 23 23 21 23 23 23 23 23 25 26 26 27 27 27 27 27 27 27 26 26 26 26 24 24 25
10 14 15 15 15 17 15 16 17 18 17 17 17 16 17 16 15 16 22 28 28 29 28 28 26 26 23 21 23 25 26 24 23 25 26 26 25 26 28 30 29 29 30 31 31 30 29 29 26 25 24 24 25 26
15 17 19 18 17 21 19 17 18 20 20 20 17 17 18 20 18 19 25 28 29 29 29 29 25 23 22 22 24 25 26 28 27 27 27 27 27 28 29 30 30 27 28 28 29 27 26 24 24 24 25 26 26 27
22 22 21 25 22 24 24 21 19 21 22 21 22 21 22 20 19 24 28 30 32 30 30 30 30 27 25 27 28 28 28 27 29 27 26 27 28 33 32 29 28 26 26 32 28 26 25 25 26 26 26 27 26 27
20 22 24 21 22 22 20 18 17 21 24 26 25 22 22 23 27 31 32 31 31 31 30 31 31 30 29 28 28 28 27 27 27 26 27 28 26 25 27 30 29 27 26 25 25 24 25 26 26 26 27 27 27 27
27 27 26 24 23 23 21 22 24 26 27 28 28 31 29 29 29 34 32 30 31 30 30 29 29 29 29 28 28 29 29 28 27 29 29 23 23 23 23 23 23 22 24 24 25 25 26 27 27 28 28 28 28 28
26 28 29 22 23 26 29 27 27 30 31 32 31 33 37 34 33 34 31 31 30 30 29 29 28 28 25 26 26 27 29 30 28 27 27 28 28 25 23 23 23 23 23 24 23 25 26 26 27 27 27 28 28 28
26 30 26 23 24 26 28 29 28 29 32 33 31 31 31 31 31 30 31 31 31 31 31 30 30 28 29 28 27 25 25 24 26 27 27 29 27 25 25 25 24 24 24 24 25 25 23 25 25 27 28 29 30 31
30 28 26 24 25 25 27 28 30 29 29 29 29 30 32 32 31 31 31 31 30 30 29 30 29 30 30 30 31 28 26 25 24 24 24 24 24 25 25 25 25 25 25 25 26 26 27 29 31 32 34 35 36 36
27 27 25 22 24 26 28 28 29 28 28 29 30 30 31 30 31 31 32 31 30 31 32 32 32 31 31 30 30 30 27 25 25 25 25 25 25 25 24 24 25 25 26 27 28 30 31 32 34 35 37 39 40 40
27 26 25 24 23 23 24 25 27 28 30 33 34 33 32 29 30 31 31 32 32 32 32 32 32 31 29 25 24 23 23 23 22 21 22 22 23 24 25 25 26 28 29 31 32 33 35 36 37 38 39 40 41 42